Regional Weather Roundup
Issued by NWS State College, PA

Home | Current Version | Previous Version | Graphics & Text | Print | Product List | Glossary Off
Versions: 1 2 3 4 5 6 7 8 9 10 11 12 13 14 15 16 17 18 19 20 21 22 23 24 25 26 27 28 29 30 31 32 33 34 35 36 37 38 39 40 41 42 43 44 45 46 47 48 49 50

000
ASUS41 KCTP 260803
RWRCTP

REGIONAL WEATHER ROUNDUP
NATIONAL WEATHER SERVICE STATE COLLEGE PA
400 AM EDT MON SEP 26 2016

Note: "fair" indicates few or no clouds below 12,000 feet with no
significant weather and/or obstructions to visibility.

* = STATION THAT DOES NOT REPORT PRECIPITATION /E.G. RAIN...SNOW...ETC/
    THUNDER OR FOG.

PAZ002>004-007>009-013>016-020>023-029>032-260900-
WESTERN PENNSYLVANIA

CITY           SKY/WX    TMP DP  RH WIND       PRES   REMARKS
ERIE           CLEAR     60  45  57 S14       29.99F
MEADVILLE      PTCLDY    55  44  66 VRB3      30.03F
FRANKLIN*        N/A     48  43  81 E6        30.06F
NEW CASTLE     FAIR      50  48  93 CALM      30.04F
BEAVER COUNTY  NOT AVBL
BUTLER*        CLEAR     50  45  81 E3        30.06F
PITTSBURGH INT PTCLDY    55  49  80 CALM      30.02F
PITTSBURGH     CLOUDY    57  47  69 SE5       30.03F
INDIANA*       CLEAR     59  48  67 S8        30.08F
LATROBE        CLOUDY    57  48  72 CALM      30.05F
WASHINGTON CO* CLEAR     48  46  93 CALM      30.03F
$$

PAZ004>006-010>012-017>019-024>028-033>037-041-042-045-046-049>053-260900-
CENTRAL PENNSYLVANIA

CITY           SKY/WX    TMP DP  RH WIND       PRES   REMARKS
BRADFORD       CLOUDY    46  43  89 SE5       30.08F
DUBOIS         CLEAR     53  42  66 SE7       30.07F
CLEARFIELD     PTCLDY    45  44  97 NE5       30.11F
JOHNSTOWN      CLEAR     54  50  86 SE7       30.09F
ALTOONA        CLEAR     52  47  83 S3        30.12F
STATE COLLEGE  CLEAR     48  44  85 CALM      30.12F
WILLIAMSPORT   CLOUDY    46  44  93 CALM      30.13F
SELINSGROVE    CLOUDY    45  44  97 NW3       30.15F
FT INDIANTOWN  CLEAR     47  44  90 CALM      30.15F
CAPITAL CITY   PTCLDY    53  48  83 CALM      30.15S
HARRISBURG     MOCLDY    53  50  89 CALM      30.15S
YORK           PTCLDY    48  47  96 CALM      30.15F
$$

PAZ038>040-043-044-047-048-054-055-060>062-067>071-260900-
EASTERN PENNSYLVANIA

CITY           SKY/WX    TMP DP  RH WIND       PRES   REMARKS
SCRANTON       CLEAR     46  38  73 NE7       30.16F
MOUNT POCONO   CLEAR     41  34  76 E5        30.17F
ALLENTOWN      CLEAR     44  40  85 CALM      30.17F
QUAKERTOWN*    SUNNY     41  39  93 CALM      30.17F
READING        CLEAR     49  45  86 CALM      30.16F
LANCASTER      CLEAR     48  47  96 CALM      30.15F
COATESVILLE    CLOUDY    50  45  81 CALM      30.17F
POTTSTOWN      CLEAR     44  43  96 CALM      30.18F
BLUE BELL      CLEAR     43  43 100 CALM      30.17R
DOYLESTOWN     CLEAR     49  43  80 NE3       30.16S
WILLOW GROVE   NOT AVBL
NORTH PHILA    PTCLDY    51  48  89 NE3       30.18S
PHILADELPHIA   PTCLDY    55  47  74 CALM      30.17S
$$




USA.gov is the U.S. government's official web portal to all federal, state and local government web resources and services.